{"data":{"norad_id":48231,"epoch":"2026-09-19T23:26:24.043488Z","epoch_age_seconds":63369,"freshness":"FRESH","line1":"1 48231U 21031X   26262.97666717 -.00000158  00000+0 -45984-3 0  9990","line2":"2 48231  87.8899 270.8116 0001868  91.7065 268.4279 13.14501925260596","mean_motion":13.14501925,"eccentricity":0.0001868,"inclination_deg":87.8899,"raan_deg":270.8116,"arg_perigee_deg":91.7065,"mean_anomaly_deg":268.4279,"bstar":-0.00045984,"rev_number":26059,"period_min":109.54719598452,"perigee_km":1204.3770418861,"apogee_km":1207.2103984031,"semimajor_km":7583.9307201446,"source":"CELESTRAK","updated_at":"2026-09-20T09:00:44.596698Z"}}